Milwaukee, WI

10:48 PM CST on December 08, 2019 (GMT -0600)
Gen Mitchell International

Weather History for KMKE - September, 2019

Change the Weather History Date:

Saturday, September 21, 2019

  Actual Average Record
Temperature  
Mean Temperature 75 °F 61 °F  
Max Temperature 81 °F 69 °F 90 °F (1920)
Min Temperature 69 °F 53 °F 33 °F (1962)
Degree Days  
Heating Degree Days 0 5  
Month to date heating degree days 8 61  
Since 1 July heating degree days 10 87  
Cooling Degree Days 10 1  
Month to date cooling degree days 90 61  
Year to date cooling degree days 696 626  
Growing Degree Days 25 (Base 50)    
Moisture  
Dew Point 68 °F    
Average Humidity 83    
Maximum Humidity 90    
Minimum Humidity 67    
Precipitation  
Precipitation 0.22 in 0.11 in 2.71 in (1947)
Month to date precipitation 5.28 2.23  
Year to date precipitation 33.69 26.41  
Snow  
Snow 0.00 in 0.00 in 0.00 in (2018)
Month to date snowfall 0.0 0.0  
Since 1 July snowfall 0.0 0.0  
Since 1 September snowfall 0.0 0.0  
Snow Depth 0.00 in    
Sea Level Pressure  
Sea Level Pressure 30.00 in    
Wind  
Wind Speed 10 mph ()    
Max Wind Speed 28 mph    
Max Gust Speed 36 mph    
Visibility 8.3 miles    
Events Rain    
T = Trace of Precipitation, MM = Missing Value Source: Averaged Metar Reports

Daily Weather History Graph

Daily Weather History Graph

Search for Another Location

Airport or City:

Astronomy

Sep. 21, 2019 Rise Set
Actual Time 6:37 AM CDT 6:51 PM CDT
Civil Twilight 6:09 AM CDT 7:19 PM CDT
Nautical Twilight 5:35 AM CDT 7:52 PM CDT
Astronomical Twilight 5:01 AM CDT 8:26 PM CDT
Moon 11:18 PM CDT (9/21) 1:53 PM CDT (9/21)
Length of Visible Light 13h 10m
Length of Day
12h 13m
Waning Gibbous, 54% of the Moon is Illuminated
Sep 21
Waning Gibbous
Sep 21
Last Quarter
Sep 28
New
Oct 5
First Quarter
Oct 13
Full

Hourly Weather History & Observations

Time (CDT) Temp. Heat Index Dew Point Humidity Pressure Visibility Wind Dir Wind Speed Gust Speed Precip Events Conditions
12:52 AM 70.0 °F - 64.9 °F 84% 30.07 in 4.0 mi SSE 4.6 mph - N/A   Haze
1:52 AM 69.1 °F - 64.9 °F 87% 30.07 in 5.0 mi SSE 4.6 mph - N/A   Scattered Clouds
2:52 AM 70.0 °F - 64.9 °F 84% 30.06 in 6.0 mi SSE 5.8 mph - N/A   Haze
3:52 AM 71.1 °F - 66.0 °F 84% 30.05 in 7.0 mi South 4.6 mph - N/A   Partly Cloudy
4:52 AM 71.1 °F - 66.0 °F 84% 30.06 in 8.0 mi SSW 8.1 mph - N/A   Partly Cloudy
5:52 AM 71.1 °F - 66.0 °F 84% 30.05 in 9.0 mi SSW 8.1 mph - N/A   Partly Cloudy
6:52 AM 72.0 °F - 66.9 °F 84% 30.06 in 8.0 mi SSW 10.4 mph - N/A   Mostly Cloudy
7:52 AM 73.9 °F - 68.0 °F 82% 30.05 in 10.0 mi SSW 9.2 mph - N/A   Mostly Cloudy
8:52 AM 75.0 °F - 68.0 °F 79% 30.04 in 10.0 mi SSW 11.5 mph - 0.00 in   Mostly Cloudy
9:52 AM 77.0 °F - 68.0 °F 74% 30.03 in 10.0 mi SSW 15.0 mph 24.2 mph N/A   Mostly Cloudy
10:52 AM 79.0 °F - 68.0 °F 69% 30.02 in 10.0 mi SW 20.7 mph 29.9 mph N/A   Mostly Cloudy
11:16 AM 79.0 °F - 68.0 °F 69% 30.03 in 10.0 mi SSW 17.3 mph 28.8 mph N/A   Mostly Cloudy
11:52 AM 80.1 °F 82.7 °F 68.0 °F 67% 30.01 in 10.0 mi SW 20.7 mph 29.9 mph N/A   Mostly Cloudy
12:52 PM 75.9 °F - 66.9 °F 74% 30.01 in 10.0 mi SW 21.9 mph 32.2 mph 0.00 in   Mostly Cloudy
1:04 PM 73.9 °F - 68.0 °F 82% 30.02 in 7.0 mi SSW 18.4 mph 32.2 mph 0.00 in Rain Light Rain
1:22 PM 73.0 °F - 69.1 °F 87% 30.01 in 2.5 mi SW 16.1 mph 28.8 mph 0.05 in Rain Rain
1:36 PM 73.0 °F - 69.1 °F 87% 30.01 in 3.0 mi SW 19.6 mph 29.9 mph 0.10 in Rain Rain
1:52 PM 73.0 °F - 69.1 °F 87% 30.00 in 5.0 mi SW 16.1 mph 25.3 mph 0.12 in Rain Rain
2:52 PM 73.0 °F - 69.1 °F 87% 29.98 in 10.0 mi SSW 12.7 mph - 0.03 in Rain Light Rain
3:35 PM 73.9 °F - 69.1 °F 85% 29.99 in 10.0 mi SSW 16.1 mph - 0.00 in   Overcast
3:52 PM 73.9 °F - 69.1 °F 85% 29.98 in 10.0 mi SSW 12.7 mph 23.0 mph 0.00 in   Overcast
4:15 PM 73.9 °F - 70.0 °F 87% 29.98 in 10.0 mi SSW 12.7 mph 21.9 mph 0.00 in Rain Light Rain
4:52 PM 73.9 °F - 70.0 °F 87% 29.97 in 5.0 mi South 11.5 mph - 0.02 in Rain Light Rain
6:22 PM 73.0 °F - 69.1 °F 87% 29.96 in 9.0 mi SSW 15.0 mph - 0.02 in Rain Light Rain
6:52 PM 73.0 °F - 70.0 °F 90% 29.95 in 10.0 mi SSW 15.0 mph - 0.02 in   Overcast
7:52 PM 73.9 °F - 69.1 °F 85% 29.96 in 10.0 mi SSW 17.3 mph - 0.01 in Rain Light Rain
8:52 PM 73.9 °F - 69.1 °F 85% 29.94 in 10.0 mi SSW 12.7 mph - 0.00 in   Overcast
9:52 PM 73.9 °F - 69.1 °F 85% 29.96 in 10.0 mi SW 11.5 mph - 0.00 in Rain Light Rain
10:30 PM 73.9 °F - 69.1 °F 85% 29.95 in 10.0 mi SSW 18.4 mph 24.2 mph 0.00 in   Overcast
10:52 PM 73.9 °F - 69.1 °F 85% 29.94 in 10.0 mi SW 13.8 mph - 0.00 in   Overcast
11:52 PM 73.9 °F - 69.1 °F 85% 29.93 in 10.0 mi SW 15.0 mph - N/A   Overcast